STARLINK-36874

Last updated on Fri Mar 27 2026 00:02:06 GMT+0000 (Coordinated Universal Time)

1 67981U 26038W 26085.50002314 .00059227 00000+0 18255-2 0 9993 2 67981 97.2849 96.4374 0001210 92.3409 132.3472 15.33393059 5903
UTC large
Height (km)
Speed (km/s)
/
Latitude / Longitude
Inclination (degrees)
Orbital Period (minutes)
Azimuth
Elevation
Range (km)
Doppler Factor

Next 0 passes for location: London (51.5072 / 0.1276)

Sorry there are no passes over London.